Regional Weather Roundup
Issued by NWS Upton, NY

Current Version | Previous Version | Graphics & Text | Print | Product List | Glossary Off
Versions: 1 2 3 4 5 6 7 8 9 10 11 12 13 14 15 16 17 18 19 20 21 22 23 24 25 26 27 28 29 30 31 32 33 34 35 36 37 38 39 40 41 42 43 44 45 46 47 48 49 50

054
ASUS41 KOKX 101908
RWROKX

REGIONAL WEATHER ROUNDUP
NATIONAL WEATHER SERVICE NEW YORK NY
200 PM EST SAT DEC 10 2016

NOTE: "FAIR" INDICATES FEW OR NO CLOUDS BELOW 12,000 FEET WITH NO
SIGNIFICANT WEATHER AND/OR OBSTRUCTIONS TO VISIBILITY.

NYZ071-072-176-178-NJZ106-104-102000-
NEW YORK CITY METRO AREA

CITY           SKY/WX    TMP DP  RH WIND       PRES   REMARKS
Central Park   CLOUDY    35  16  45 VRB5      30.35S WCI  31
Wall St Helipt CLOUDY    37  20  50 VRB7      30.35S WCI  32
Bronx Bot Gard   N/A     34  18  51 W3        30.34R
LaGuardia APRT CLOUDY    36  18  48 NW16      30.34S WCI  26
Kennedy INTL   CLOUDY    37  16  42 W14       30.35S WCI  28
Breezy Point     N/A     34 N/A N/A W13G18      N/A  WCI  25
Newark/Liberty CLOUDY    36  16  44 NW14      30.35R WCI  27
Teterboro      CLOUDY    34  16  47 W10       30.34R WCI  26
$$

NYZ177-179-078>081-102000-
LONG ISLAND NEW YORK

CITY           SKY/WX    TMP DP  RH WIND       PRES   REMARKS
Jones Beach      N/A     34 N/A N/A NW10        N/A  WCI  26
Matinecock PT    N/A     36 N/A N/A W13         N/A  WCI  27
Farmingdale    PTSUNNY   35  17  47 W12G20    30.33F WCI  27
MacArthur/ISP  PTSUNNY   34  15  46 NW13      30.32S WCI  25
Shirley        LGT RAIN  35  15  44 NW17G23   30.33S WCI  25
Westhampton    NOT AVBL
Southampton      N/A     36  19  51 W12       30.29S WCI  27
Bridgehampton  NOT AVBL
East Hampton   PTSUNNY   33  14  46 NW10      30.30F WCI  25
Montauk          N/A     33  15  47 W13G22    30.31S WCI  24
$$

NYZ052-065-067-102000-
HUDSON VALLEY

CITY           SKY/WX    TMP DP  RH WIND       PRES   REMARKS
White Plains   CLOUDY    32  16  51 NW10      30.30F WCI  24
Newburgh       PTSUNNY   30  18  59 W14       30.31F WCI  20
Montgomery     MOSUNNY   32  17  54 W8        30.30F WCI  25
Poughkeepsie   CLOUDY    30  13  49 NW7       30.32S WCI  23
Albany         MOSUNNY   28  10  46 NW12      30.32F WCI  18
$$

NJZ001-105-106-008-010-013-015-019>022-104-102000-
NEW JERSEY

CITY           SKY/WX    TMP DP  RH WIND       PRES   REMARKS
Newark/Liberty CLOUDY    36  16  44 NW14      30.35R WCI  27
Teterboro      CLOUDY    34  16  47 W10       30.34R WCI  26
Caldwell       CLOUDY    34  16  47 NW9       30.34S WCI  27
Somerville     CLOUDY    35  17  47 W8        30.34R WCI  29
Linden         CLOUDY    35  19  52 NW12G18   30.36R WCI  27
Sussex         CLOUDY    31  20  63 SW8       30.31S WCI  23
Andover          N/A     32  16  51 VRB6      30.32S WCI  26
Trenton        PTSUNNY   36  16  44 NW14G20   30.35S WCI  27
Millville      MOSUNNY   37  17  44 W13G21    30.38F WCI  29
Atlantic City  MOSUNNY   38  15  39 W14       30.37F WCI  30
Wrightstown    PTSUNNY   35  16  45 NW9       30.33S WCI  28
Toms River     MOSUNNY   37  16  42 W10G20    30.36S WCI  30
Belmar         MOSUNNY   40  17  39 W9        30.35S WCI  34
$$

PAZ047>061-062-071-102000-
EASTERN PENNSYLVANIA

CITY           SKY/WX    TMP DP  RH WIND       PRES   REMARKS
Philadelphia   PTSUNNY   37  14  38 W9        30.38F WCI  30
Allentown      CLOUDY    34  16  47 W9        30.35S WCI  27
Scranton       LGT SNOW  28  21  75 W8        30.30R WCI  20
$$

CTZ002-004>006-009-010-012-RIZ004-006-007-MAZ004-011-015-102000-
SOUTHERN NEW ENGLAND
 IN CT

CITY           SKY/WX    TMP DP  RH WIND       PRES   REMARKS
Bradley INTL   PTSUNNY   30   8  39 NW13      30.30S WCI  20
Hartford       MOSUNNY   30   9  41 NW13G20   30.31S WCI  20
Danbury        MOSUNNY   31  12  45 NW10      30.31F WCI  22
Wtrbury/Oxford PTSUNNY   28  10  47 NW9       30.29F WCI  20
Bridgeport     MOSUNNY   35  11  36 W15       30.32F WCI  25
Meriden        PTSUNNY   32  10  40 NW14G21   30.32S WCI  22
New Haven      MOSUNNY   33  14  45 NW8       30.32S WCI  26
Chester          N/A     30   9  40 NW12G17   30.28S WCI  21
Groton         SUNNY     36  10  34 NW15G22   30.29S WCI  27
Wilimantic     PTSUNNY   31   9  39 NW12      30.29S WCI  22

 IN RI

CITY           SKY/WX    TMP DP  RH WIND       PRES   REMARKS
Providence     PTSUNNY   30   5  34 NW12      30.28S WCI  20
Block Island   SUNNY     32  13  45 NW15G22   30.29S WCI  22
Westerly       SUNNY     33   6  32 W7G20     30.30S WCI  27
 IN MA

CITY           SKY/WX    TMP DP  RH WIND       PRES   REMARKS
Boston         MOSUNNY   29   4  34 W13G21    30.26S WCI  19
Worcester      SUNNY     24   2  38 W10G18    30.21S WCI  14
Westfield      SUNNY     30   6  36 NW13G20   30.28S WCI  20
Provincetown   CLOUDY    28  14  55 NW14G23   30.26R WCI  17
Nantucket      SUNNY     30   9  41 W16       30.25S WCI  19
$$

ANZ330-335-338-340-345-350-353-355-102000-
COASTAL MARINE OBSERVATIONS


STATION/POSITION TIME  SKY/WX   TEMP    WIND        PRES    VSBY  WAVE
                                AIR SEA DIR/SP/G                  HT/PER
                 (UTC)          (F)     (DEG/KT/KT) (MB)    (MI)  (FT/S)
NY HARB ENTRANCE 1750            36 51  290/ 16/ 19 1027.4          2/ 4
20 S FIRE ISLAND NOT AVBL
GREAT SOUTH BAY  1815            34 39                N/A
23 SSW MONTAUK P 1750            33 54  280/ 17/ 25 1026.6          4/ 5
15 E BARNEGAT LI 1830               51                N/A           2/ 4
HUDSON CANYON    1750            38 55              1027.2          6/ 6
KINGS POINT      1842            34 45              1027.0
EXECUTION ROCKS  1845            36     290/ 14/ 19   N/A
CENTRAL LI SOUND 1830            33 48  290/ 14/ 19   N/A           2/ 3
EASTERN LI SOUND NOT AVBL
ROBBINS REEF     1848            34     300/ 17/ 20 1027.5
$$


>>>>>>>>>>>>>>>>>>>>>>>>>>>> KEY <<<<<<<<<<<<<<<<<<<<<<<<<<<
>                                                          <
>     SKY/WX - Sky Condition/Present Weather               <
>     TMP    - Temperature in Fahrenheit                   <
>     DP     - Dew Point in Fahrenheit                     <
>     RH     - Relative Humidity in Percent                <
>     WIND   - Direction (from) and Speed in MPH           <
>     PRES   - Mean Sea Level Pressure (inches of Hg)      <
>     WCI    - Wind Chill Index                            <
>     VSB    - VISIBILITY IN MILES                         <
>     HX     - HEAT INDEX                                  <
>     TC     - TEMPERATURE IN CELSIUS                      <
>     VRB    - VARIABLE WIND DIRECTION                     <
>                                                          <
>>>>>>>>>>>>>>>>>>>>>>>>>>>> KEY <<<<<<<<<<<<<<<<<<<<<<<<<<<




USA.gov is the U.S. government's official web portal to all federal, state and local government web resources and services.